Weather in Borki

Russia / Pskov Oblast     56°04′48″N   30°14′55″E
temp.,
°C
wind,
m/s
gust,
m/s
humid.,
%
clouds,
%
prec.,
mm/h
press.,
hPa
HPBL,
m
27 october, wed
wed2700:00+4sw41280100 0.0 1016443
03:00+4sw41282100 0.0 1014408
06:00+5sw41186100 0.1 1013545
09:00+5wsw41295100 1.3 1013653
12:00+8w5980100 0.0 10141037
15:00+8w497630 0.1 10151041
18:00+7wsw4983100 0.0 1015625
21:00+7sw41289100 0.0 1014590
28 october, thu
thu2800:00+7sw61593100 2.8 1011871
03:00+9wsw61494100 5.8 1009876
06:00+10w61396100 0.4 1009903
09:00+11wnw61283100 0.7 10111177
12:00+11nw6117686 0.1 10151189
15:00+9nw5970100 0.1 10181220
18:00+8nnw3874100 0.0 1021382
21:00+5n1195100 0.0 102420
29 october, fri
fri2900:00+5sse1193100 0.0 102510
03:00+5s248957 0.0 1026107
06:00+4ssw279513 0.0 1026150
09:00+6ssw388990 0.0 1027239
12:00+9ssw3886100 0.0 1027344
15:00+10ssw388780 0.0 1027406
18:00+8s2994100 0.0 1027210
21:00+7ssw3119420 0.0 1027278
30 october, sat
sat3000:00+6ssw3119168 0.0 1027300
03:00+6ssw3128436 0.0 1027308
06:00+5s3128545 0.0 1026307
09:00+5s41385100 0.0 1026356
12:00+9s4137367 0.0 1026494
15:00+10s5137132 0.0 1024635
18:00+8s5147998 0.0 1024524
21:00+8ssw515835 0.0 1024534
31 october, sun
sun3100:00+7ssw414875 0.0 1024476
03:00+7s412905 0.0 1023352
06:00+6s311925 0.0 1023311
09:00+6s311915 0.0 1023314
12:00+9s4117513 0.0 1022473
15:00+11s4117111 0.0 1020657
18:00+9s5137257 0.0 1019597
21:00+8s51573100 0.0 1019649